| time (UTC) | temp F | wind direction | speed MPH | gust MPH | rain 1hr in | rain 24hr in | rain mn in | humidity % | barometer mb |
| 20260505123030 | 58 | 5 | 3.0 | 10.0 | 0.00 | 0.00 | 0.00 | 73 | 1015.4 |
| 20260505121531 | 58 | 76 | 3.0 | 11.0 | 0.00 | 0.00 | 0.00 | 71 | 1015.3 |
| 20260505120030 | 59 | 102 | 2.0 | 8.0 | 0.00 | 0.00 | 0.00 | 73 | 1015.4 |
| 20260505114537 | 58 | 300 | 2.0 | 13.0 | 0.00 | 0.00 | 0.00 | 75 | 1015.4 |
| 20260505113029 | 57 | 316 | 3.0 | 10.0 | 0.00 | 0.00 | 0.00 | 74 | 1015.4 |
| 20260505111533 | 57 | 351 | 3.0 | 9.0 | 0.00 | 0.00 | 0.00 | 75 | 1015.5 |
| 20260505100041 | 58 | 280 | 4.0 | 9.0 | 0.00 | 0.00 | 0.00 | 73 | 1015.5 |
| 20260505094531 | 58 | 63 | 2.0 | 8.0 | 0.00 | 0.00 | 0.00 | 75 | 1015.5 |
| 20260505093033 | 58 | 164 | 2.0 | 8.0 | 0.00 | 0.00 | 0.00 | 76 | 1015.5 |
| 20260505091527 | 57 | 286 | 2.0 | 8.0 | 0.00 | 0.00 | 0.00 | 76 | 1015.7 |
| 20260505090048 | 57 | 330 | 2.0 | 9.0 | 0.00 | 0.00 | 0.00 | 77 | 1015.6 |
| 20260505084536 | 56 | 327 | 2.0 | 10.0 | 0.00 | 0.00 | 0.00 | 78 | 1015.6 |
| 20260505083040 | 56 | 326 | 3.0 | 8.0 | 0.00 | 0.00 | 0.00 | 77 | 1015.6 |
| 20260505081548 | 56 | 121 | 3.0 | 11.0 | 0.00 | 0.00 | 0.00 | 77 | 1015.7 |
| 20260505080038 | 56 | 310 | 2.0 | 8.0 | 0.00 | 0.00 | 0.00 | 78 | 1015.5 |
| 20260505074527 | 56 | 344 | 2.0 | 8.0 | 0.00 | 0.00 | 0.00 | 79 | 1015.5 |
| 20260505073030 | 55 | 355 | 2.0 | 6.0 | 0.00 | 0.00 | 0.00 | 80 | 1015.5 |
| 20260505071531 | 54 | 292 | 1.0 | 7.0 | 0.00 | 0.00 | 0.00 | 81 | 1015.6 |
| 20260505070031 | 53 | 323 | 1.0 | 8.0 | 0.00 | 0.00 | 0.00 | 82 | 1015.5 |
| 20260505064527 | 52 | 261 | 2.0 | 10.0 | 0.00 | 0.00 | 0.00 | 83 | 1015.5 |
| 20260505063035 | 52 | 352 | 2.0 | 8.0 | 0.00 | 0.00 | 0.00 | 84 | 1015.6 |
| 20260505061538 | 51 | 257 | 2.0 | 9.0 | 0.00 | 0.00 | 0.00 | 84 | 1015.4 |
| 20260505060028 | 51 | 321 | 2.0 | 8.0 | 0.00 | 0.00 | 0.00 | 85 | 1015.4 |
| 20260505054530 | 50 | 333 | 2.0 | 9.0 | 0.00 | 0.00 | 0.00 | 85 | 1015.4 |
| 20260505053030 | 50 | 346 | 3.0 | 10.0 | 0.00 | 0.00 | 0.00 | 86 | 1015.4 |
| 20260505051530 | 50 | 304 | 2.0 | 9.0 | 0.00 | 0.00 | 0.00 | 87 | 1015.2 |
| 20260505041530 | 50 | 9 | 3.0 | 11.0 | 0.00 | 0.00 | 0.00 | 88 | 1015.1 |
| 20260505040029 | 50 | 265 | 3.0 | 8.0 | 0.00 | 0.00 | 0.00 | 87 | 1015.1 |
| 20260505034529 | 50 | 311 | 2.0 | 8.0 | 0.00 | 0.00 | 0.00 | 87 | 1015.1 |
| 20260505033035 | 50 | 0 | 3.0 | 8.0 | 0.00 | 0.00 | 0.00 | 86 | 1015.1 |
| 20260505031530 | 51 | 309 | 3.0 | 9.0 | 0.00 | 0.00 | 0.00 | 86 | 1015.2 |
| 20260505030028 | 52 | 290 | 3.0 | 10.0 | 0.00 | 0.00 | 0.00 | 85 | 1015.1 |
| 20260505024550 | 52 | 254 | 1.0 | 8.0 | 0.00 | 0.00 | 0.00 | 85 | 1015.0 |
| 20260505023038 | 52 | 308 | 3.0 | 10.0 | 0.00 | 0.00 | 0.00 | 85 | 1014.9 |
| 20260505021544 | 52 | 311 | 2.0 | 6.0 | 0.00 | 0.00 | 0.00 | 85 | 1014.8 |
| 20260505020030 | 52 | 227 | 1.0 | 12.0 | 0.00 | 0.00 | 0.00 | 85 | 1014.7 |
| 20260505014530 | 52 | 349 | 2.0 | 8.0 | 0.00 | 0.00 | 0.00 | 86 | 1015.0 |
| 20260505013029 | 52 | 13 | 2.0 | 9.0 | 0.00 | 0.00 | 0.00 | 87 | 1015.2 |
| 20260505011544 | 52 | 341 | 3.0 | 8.0 | 0.00 | 0.00 | 0.00 | 87 | 1015.3 |
| 20260505010030 | 52 | 327 | 2.0 | 8.0 | 0.00 | 0.00 | 0.00 | 87 | 1015.3 |
| 20260505004537 | 51 | 345 | 2.0 | 7.0 | 0.00 | 0.00 | 0.00 | 87 | 1015.5 |
| 20260505003028 | 51 | 14 | 2.0 | 8.0 | 0.00 | 0.00 | 0.00 | 86 | 1015.5 |
| 20260505001531 | 52 | 306 | 1.0 | 4.0 | 0.00 | 0.00 | 0.00 | 86 | 1015.5 |
| 20260505000032 | 52 | 303 | 2.0 | 5.0 | 0.00 | 0.00 | 0.00 | 86 | 1015.6 |
| 20260504234528 | 52 | 324 | 2.0 | 9.0 | 0.00 | 0.00 | 0.00 | 86 | 1015.6 |
| 20260504233028 | 52 | 291 | 1.0 | 5.0 | 0.00 | 0.00 | 0.00 | 86 | 1015.6 |
| 20260504231528 | 52 | 341 | 1.0 | 8.0 | 0.00 | 0.00 | 0.00 | 86 | 1015.6 |
| 20260504230028 | 52 | 316 | 2.0 | 8.0 | 0.00 | 0.00 | 0.00 | 86 | 1015.6 |
| 20260504224527 | 51 | 265 | 3.0 | 8.0 | 0.00 | 0.00 | 0.00 | 86 | 1015.7 |
| 20260504223034 | 51 | 0 | 1.0 | 7.0 | 0.00 | 0.00 | 0.00 | 87 | 1015.8 |
| 20260504221536 | 52 | 329 | 1.0 | 6.0 | 0.00 | 0.00 | 0.00 | 87 | 1015.8 |
| 20260504220030 | 51 | 327 | 0.0 | 6.0 | 0.00 | 0.00 | 0.00 | 87 | 1015.9 |
| 20260504214528 | 51 | 289 | 2.0 | 6.0 | 0.00 | 0.00 | 0.00 | 87 | 1015.9 |
| 20260504213027 | 52 | 17 | 2.0 | 5.0 | 0.00 | 0.00 | 0.00 | 87 | 1016.1 |
| 20260504211528 | 52 | 328 | 1.0 | 7.0 | 0.00 | 0.00 | 0.00 | 87 | 1016.1 |
| 20260504210030 | 52 | 5 | 1.0 | 5.0 | 0.00 | 0.00 | 0.00 | 87 | 1016.1 |
| 20260504204536 | 52 | 319 | 1.0 | 5.0 | 0.00 | 0.00 | 0.00 | 87 | 1016.1 |
| 20260504203032 | 51 | 306 | 1.0 | 5.0 | 0.00 | 0.00 | 0.00 | 87 | 1015.9 |
| 20260504201527 | 51 | 300 | 1.0 | 8.0 | 0.00 | 0.00 | 0.00 | 86 | 1015.8 |
| 20260504200029 | 51 | 319 | 2.0 | 8.0 | 0.00 | 0.00 | 0.00 | 86 | 1015.7 |
| 20260504194536 | 51 | 309 | 2.0 | 6.0 | 0.00 | 0.00 | 0.00 | 86 | 1015.6 |
| 20260504193028 | 51 | 306 | 2.0 | 6.0 | 0.00 | 0.00 | 0.00 | 85 | 1015.6 |
| 20260504191527 | 51 | 311 | 2.0 | 4.0 | 0.00 | 0.00 | 0.00 | 84 | 1015.4 |
| 20260504190035 | 51 | 286 | 2.0 | 6.0 | 0.00 | 0.00 | 0.00 | 84 | 1015.3 |
| 20260504184535 | 52 | 276 | 1.0 | 5.0 | 0.00 | 0.00 | 0.00 | 83 | 1015.4 |
| 20260504183032 | 53 | 322 | 2.0 | 8.0 | 0.00 | 0.00 | 0.00 | 82 | 1015.4 |
| 20260504181530 | 53 | 5 | 2.0 | 7.0 | 0.00 | 0.00 | 0.00 | 83 | 1015.4 |
| 20260504180028 | 54 | 330 | 2.0 | 8.0 | 0.00 | 0.00 | 0.00 | 83 | 1015.3 |
| 20260504174530 | 54 | 323 | 1.0 | 6.0 | 0.00 | 0.00 | 0.00 | 83 | 1015.4 |
| 20260504173029 | 54 | 24 | 2.0 | 9.0 | 0.00 | 0.00 | 0.00 | 83 | 1015.3 |
| 20260504171531 | 54 | 314 | 2.0 | 8.0 | 0.00 | 0.00 | 0.00 | 83 | 1015.4 |